LRC600 MSLP-KIAD

Flight info

Callsign LRC600
Flight time N/A
Altitude 33000
Route ATUMA3F ATUMA UH225 TIRNA DCT KORTI UG521 CZM UB881 CUN UM219 MYDIA M219 CIGAR DCT DEANR Q109 CAMJO Q99 OGRAE DCT BZNGA DCT DORRN CAVLR6
Aircraft A320/M-SDE3FGHIRWY/LB1

Departure

Time 2026-04-15 18:34
Airport El Salvador International Airport Saint Óscar Arnulfo Romero y Galdámez (MSLP)

Arrival

Time N/A
Airport Washington Dulles International Airport (KIAD)
Time Latitude Longitude Altitude Speed Heading
2026-04-15 18:23 13.44375 -89.05612 91 ft 3 kts 329°
2026-04-15 18:23 13.44365 -89.05606 90 ft 2 kts 299°
2026-04-15 18:23 13.44363 -89.05595 92 ft 2 kts 246°
2026-04-15 18:23 13.44365 -89.05589 91 ft 0 kts 251°
2026-04-15 18:25 13.44365 -89.05590 91 ft 1 kts 251°
2026-04-15 18:26 13.44341 -89.05656 92 ft 20 kts 251°
2026-04-15 18:26 13.44291 -89.05793 92 ft 21 kts 250°
2026-04-15 18:26 13.44230 -89.05911 92 ft 16 kts 201°
2026-04-15 18:26 13.44144 -89.05944 91 ft 13 kts 238°
2026-04-15 18:27 13.44114 -89.06034 91 ft 14 kts 249°
2026-04-15 18:27 13.44080 -89.06128 93 ft 15 kts 250°
2026-04-15 18:27 13.44044 -89.06228 92 ft 15 kts 249°
2026-04-15 18:27 13.44006 -89.06333 87 ft 16 kts 249°
2026-04-15 18:28 13.43966 -89.06445 173 ft 17 kts 250°
2026-04-15 18:28 13.43924 -89.06564 175 ft 18 kts 250°
2026-04-15 18:28 13.43879 -89.06690 173 ft 19 kts 250°
2026-04-15 18:28 13.43832 -89.06823 172 ft 20 kts 250°
2026-04-15 18:29 13.43782 -89.06963 171 ft 21 kts 247°
2026-04-15 18:29 13.43690 -89.06982 169 ft 0 kts 159°
2026-04-15 18:30 13.43687 -89.06981 169 ft 1 kts 159°
2026-04-15 18:30 13.43634 -89.06959 163 ft 19 kts 159°
2026-04-15 18:30 13.43619 -89.06899 163 ft 0 kts 71°
2026-04-15 18:33 13.43636 -89.06849 168 ft 34 kts 70°
2026-04-15 18:34 13.43802 -89.06379 172 ft 102 kts 70°
2026-04-15 18:34 13.44114 -89.05510 93 ft 156 kts 70°
2026-04-15 18:34 13.44532 -89.04354 254 ft 185 kts 72°
2026-04-15 18:34 13.44996 -89.03097 722 ft 197 kts 72°
2026-04-15 18:35 13.45507 -89.01702 995 ft 214 kts 72°
2026-04-15 18:35 13.46062 -89.00181 1197 ft 239 kts 70°
2026-04-15 18:35 13.46671 -88.98514 1581 ft 258 kts 71°
2026-04-15 18:35 13.47299 -88.96792 2307 ft 261 kts 69°
2026-04-15 18:36 13.47757 -88.94991 3062 ft 264 kts 91°
2026-04-15 18:36 13.47242 -88.93197 3788 ft 270 kts 124°
2026-04-15 18:36 13.45781 -88.91962 4490 ft 281 kts 157°
2026-04-15 18:36 13.43843 -88.91739 5177 ft 288 kts 191°
2026-04-15 18:37 13.42052 -88.92630 5851 ft 290 kts 225°
2026-04-15 18:37 13.41001 -88.94361 6505 ft 287 kts 257°
2026-04-15 18:37 13.40774 -88.96376 7172 ft 285 kts 277°
2026-04-15 18:37 13.41267 -88.98321 7850 ft 282 kts 299°
2026-04-15 18:38 13.42455 -88.99908 8549 ft 281 kts 322°
2026-04-15 18:38 13.44149 -89.00885 9236 ft 283 kts 342°
2026-04-15 18:38 13.46120 -89.01111 9827 ft 290 kts
2026-04-15 18:38 13.48068 -89.00515 10273 ft 302 kts 23°
2026-04-15 18:39 13.50029 -88.99593 10391 ft 324 kts 25°
2026-04-15 18:39 13.52166 -88.98558 10517 ft 345 kts 25°
2026-04-15 18:39 13.54357 -88.97488 10645 ft 363 kts 25°
2026-04-15 18:39 13.56711 -88.96463 10985 ft 371 kts 19°
2026-04-15 18:40 13.59186 -88.95639 11482 ft 376 kts 18°
2026-04-15 18:40 13.61693 -88.94828 11988 ft 380 kts 18°
2026-04-15 18:40 13.64235 -88.94022 12512 ft 384 kts 18°
2026-04-15 18:40 13.66803 -88.93213 13012 ft 388 kts 18°
2026-04-15 18:41 13.69395 -88.92393 13484 ft 391 kts 19°
2026-04-15 18:41 13.72006 -88.91560 13939 ft 395 kts 19°
2026-04-15 18:41 13.74639 -88.90716 14357 ft 398 kts 19°
2026-04-15 18:41 13.77288 -88.89866 14783 ft 400 kts 19°
2026-04-15 18:42 13.79954 -88.89010 15213 ft 403 kts 19°
2026-04-15 18:42 13.82635 -88.88150 15596 ft 405 kts 19°
2026-04-15 18:42 13.85333 -88.87282 15990 ft 407 kts 19°
2026-04-15 18:42 13.88049 -88.86409 16376 ft 410 kts 19°
2026-04-15 18:43 13.90779 -88.85532 16761 ft 412 kts 19°
2026-04-15 18:43 13.93527 -88.84647 17166 ft 415 kts 19°
2026-04-15 18:43 13.96287 -88.83758 17531 ft 417 kts 19°
2026-04-15 18:43 13.99063 -88.82866 17893 ft 419 kts 19°
2026-04-15 18:44 14.01858 -88.81967 18244 ft 421 kts 19°
2026-04-15 18:44 14.04664 -88.81065 18554 ft 424 kts 18°
2026-04-15 18:44 14.07480 -88.80163 18905 ft 425 kts 18°
2026-04-15 18:44 14.10309 -88.79255 19217 ft 426 kts 18°
2026-04-15 18:45 14.13142 -88.78342 19538 ft 428 kts 18°
2026-04-15 18:45 14.15992 -88.77424 19828 ft 429 kts 18°
2026-04-15 18:45 14.18844 -88.76507 20140 ft 430 kts 18°
2026-04-15 18:45 14.21711 -88.75583 20481 ft 432 kts 18°
2026-04-15 18:46 14.24571 -88.74660 20849 ft 431 kts 18°
2026-04-15 18:46 14.27442 -88.73735 21172 ft 432 kts 18°
2026-04-15 18:46 14.30313 -88.72813 21471 ft 434 kts 18°
2026-04-15 18:46 14.33197 -88.71886 21779 ft 434 kts 18°
2026-04-15 18:47 14.36088 -88.70953 22082 ft 436 kts 18°
2026-04-15 18:47 14.38945 -88.70028 22373 ft 437 kts 17°
2026-04-15 18:47 14.41852 -88.69086 22642 ft 439 kts 17°
2026-04-15 18:47 14.44773 -88.68139 22934 ft 440 kts 17°
2026-04-15 18:48 14.47699 -88.67194 23214 ft 441 kts 17°
2026-04-15 18:48 14.50639 -88.66247 23486 ft 443 kts 17°
2026-04-15 18:48 14.53588 -88.65298 23741 ft 444 kts 17°
2026-04-15 18:48 14.56548 -88.64345 23927 ft 447 kts 17°
2026-04-15 18:49 14.59517 -88.63388 24148 ft 448 kts 17°
2026-04-15 18:49 14.62497 -88.62424 24344 ft 449 kts 17°
2026-04-15 18:49 14.65486 -88.61456 24555 ft 450 kts 17°
2026-04-15 18:49 14.68483 -88.60483 24765 ft 452 kts 17°
2026-04-15 18:50 14.71491 -88.59507 24956 ft 453 kts 17°
2026-04-15 18:50 14.74511 -88.58530 25147 ft 455 kts 16°
2026-04-15 18:50 14.77533 -88.57555 25350 ft 456 kts 16°
2026-04-15 18:50 14.80574 -88.56572 25544 ft 457 kts 16°
2026-04-15 18:51 14.83610 -88.55588 25739 ft 459 kts 16°
2026-04-15 18:51 14.86662 -88.54596 25928 ft 460 kts 16°
2026-04-15 18:51 14.89720 -88.53603 26110 ft 461 kts 16°
2026-04-15 18:51 14.92790 -88.52609 26303 ft 463 kts 15°
2026-04-15 18:52 14.95865 -88.51614 26520 ft 463 kts 15°
2026-04-15 18:52 14.98949 -88.50613 26720 ft 465 kts 15°
2026-04-15 18:52 15.01996 -88.49623 26921 ft 466 kts 15°
2026-04-15 18:52 15.05093 -88.48617 27107 ft 467 kts 15°
2026-04-15 18:53 15.08207 -88.47608 27264 ft 468 kts 15°
2026-04-15 18:53 15.11314 -88.46602 27536 ft 467 kts 15°
2026-04-15 18:53 15.14415 -88.45595 27801 ft 466 kts 15°
2026-04-15 18:53 15.17503 -88.44590 28062 ft 465 kts 15°
2026-04-15 18:54 15.20592 -88.43583 28346 ft 464 kts 15°
2026-04-15 18:54 15.23672 -88.42577 28614 ft 464 kts 14°
2026-04-15 18:54 15.26744 -88.41576 28896 ft 463 kts 14°
2026-04-15 18:54 15.29819 -88.40577 29183 ft 462 kts 14°
2026-04-15 18:55 15.32882 -88.39582 29447 ft 461 kts 14°
2026-04-15 18:55 15.35942 -88.38586 29696 ft 460 kts 14°
2026-04-15 18:55 15.38999 -88.37589 29992 ft 460 kts 14°
2026-04-15 18:55 15.42049 -88.36596 30230 ft 459 kts 14°
2026-04-15 18:56 15.45090 -88.35605 30467 ft 458 kts 14°
2026-04-15 18:56 15.48130 -88.34614 30744 ft 457 kts 14°
2026-04-15 18:56 15.51161 -88.33625 30984 ft 455 kts 14°
2026-04-15 18:56 15.54175 -88.32640 31254 ft 454 kts 14°
2026-04-15 18:57 15.57179 -88.31657 31516 ft 453 kts 15°
2026-04-15 18:57 15.60140 -88.30688 31783 ft 451 kts 15°
2026-04-15 18:57 15.63129 -88.29710 32054 ft 450 kts 15°
2026-04-15 18:57 15.66114 -88.28737 32313 ft 448 kts 15°
2026-04-15 18:58 15.69089 -88.27768 32584 ft 447 kts 15°
2026-04-15 18:58 15.72047 -88.26805 32846 ft 446 kts 15°
2026-04-15 18:58 15.75005 -88.25837 32959 ft 446 kts 15°
2026-04-15 18:59 15.80990 -88.23880 32985 ft 455 kts 15°
2026-04-15 18:59 15.87062 -88.21893 32986 ft 459 kts 15°
2026-04-15 19:00 15.93168 -88.19889 32990 ft 460 kts 15°
2026-04-15 19:00 15.99266 -88.17887 32998 ft 460 kts 15°
2026-04-15 19:01 16.05360 -88.15895 33007 ft 459 kts 15°
2026-04-15 19:01 16.11466 -88.13899 33011 ft 460 kts 15°
2026-04-15 19:02 16.17573 -88.11888 33013 ft 460 kts 15°
2026-04-15 19:02 16.23675 -88.09871 33017 ft 460 kts 15°
2026-04-15 19:03 16.29739 -88.07876 33023 ft 460 kts 15°
2026-04-15 19:03 16.35836 -88.05877 33034 ft 459 kts 15°
2026-04-15 19:04 16.41908 -88.03878 33031 ft 457 kts 15°
2026-04-15 19:04 16.47980 -88.01880 33030 ft 457 kts 15°
2026-04-15 19:05 16.54032 -87.99887 33031 ft 456 kts 15°
2026-04-15 19:05 16.60090 -87.97884 33027 ft 456 kts 15°
2026-04-15 19:06 16.66142 -87.95891 33027 ft 456 kts 15°
2026-04-15 19:06 16.72193 -87.93889 33028 ft 456 kts 15°
2026-04-15 19:07 16.78243 -87.91890 33027 ft 456 kts 15°
2026-04-15 19:07 16.83266 -87.90231 33024 ft 456 kts 15°
2026-04-15 19:08 16.89306 -87.88231 33022 ft 455 kts 15°
2026-04-15 19:08 16.95359 -87.86229 33022 ft 455 kts 15°
2026-04-15 19:09 17.01389 -87.84225 33019 ft 455 kts 15°
2026-04-15 19:09 17.07424 -87.82222 33019 ft 455 kts 15°
2026-04-15 19:10 17.13463 -87.80217 33015 ft 455 kts 15°
2026-04-15 19:10 17.19508 -87.78208 33017 ft 455 kts 15°
2026-04-15 19:11 17.25544 -87.76206 33017 ft 455 kts 15°
2026-04-15 19:11 17.31586 -87.74202 33017 ft 456 kts 15°
2026-04-15 19:12 17.37628 -87.72188 33016 ft 456 kts 15°
2026-04-15 19:12 17.43672 -87.70184 33032 ft 456 kts 15°
2026-04-15 19:13 17.49711 -87.68173 33039 ft 455 kts 15°
2026-04-15 19:13 17.55739 -87.66157 33040 ft 454 kts 15°
2026-04-15 19:14 17.61756 -87.64145 33041 ft 454 kts 15°
2026-04-15 19:14 17.67771 -87.62136 33039 ft 454 kts 15°
2026-04-15 19:15 17.73793 -87.60129 33040 ft 454 kts 15°
2026-04-15 19:15 17.79768 -87.58125 33037 ft 454 kts 15°
2026-04-15 19:16 17.85787 -87.56118 33038 ft 454 kts 15°
2026-04-15 19:16 17.91814 -87.54099 33037 ft 454 kts 15°
2026-04-15 19:17 17.97831 -87.52081 33036 ft 454 kts 15°
2026-04-15 19:17 18.03848 -87.50064 33040 ft 454 kts 15°
2026-04-15 19:18 18.09868 -87.48039 33036 ft 454 kts 15°
2026-04-15 19:18 18.18888 -87.45013 33036 ft 454 kts 15°
2026-04-15 19:19 18.24913 -87.42991 33040 ft 454 kts 15°
2026-04-15 19:19 18.30936 -87.40963 33041 ft 454 kts 15°
2026-04-15 19:20 18.36958 -87.38933 33036 ft 454 kts 15°
2026-04-15 19:20 18.42977 -87.36902 33044 ft 454 kts 15°
2026-04-15 19:21 18.48996 -87.34879 33038 ft 454 kts 15°
2026-04-15 19:21 18.55013 -87.32852 33035 ft 454 kts 15°
2026-04-15 19:22 18.61015 -87.30819 33053 ft 453 kts 15°
2026-04-15 19:22 18.67116 -87.29306 33052 ft 449 kts
2026-04-15 19:23 18.73245 -87.28040 33048 ft 449 kts
2026-04-15 19:23 18.79380 -87.26762 33049 ft 448 kts
2026-04-15 19:24 18.85458 -87.25497 33045 ft 448 kts
2026-04-15 19:24 18.91566 -87.24236 33041 ft 447 kts
2026-04-15 19:25 18.97688 -87.22972 33035 ft 447 kts
2026-04-15 19:25 19.03796 -87.21706 33021 ft 447 kts
2026-04-15 19:26 19.09902 -87.20433 33038 ft 447 kts
2026-04-15 19:26 19.16007 -87.19158 33025 ft 447 kts
2026-04-15 19:27 19.22112 -87.17893 33028 ft 447 kts
2026-04-15 19:27 19.28218 -87.16620 33035 ft 447 kts
2026-04-15 19:28 19.34323 -87.15347 33037 ft 447 kts
2026-04-15 19:28 19.40426 -87.14071 33037 ft 447 kts
2026-04-15 19:29 19.46537 -87.12793 33044 ft 448 kts
2026-04-15 19:29 19.52654 -87.11519 33048 ft 448 kts
2026-04-15 19:30 19.58766 -87.10243 33049 ft 448 kts
2026-04-15 19:30 19.64837 -87.08974 33050 ft 447 kts
2026-04-15 19:31 19.70952 -87.07693 33049 ft 447 kts
2026-04-15 19:31 19.77060 -87.06413 33047 ft 447 kts
2026-04-15 19:32 19.83170 -87.05128 33058 ft 447 kts
2026-04-15 19:32 19.89274 -87.03847 33054 ft 447 kts
2026-04-15 19:33 19.95384 -87.02562 33049 ft 447 kts
2026-04-15 19:33 20.01491 -87.01280 33046 ft 447 kts
2026-04-15 19:34 20.07597 -86.99993 33048 ft 447 kts
2026-04-15 19:34 20.13707 -86.98716 33045 ft 447 kts
2026-04-15 19:35 20.19823 -86.97474 33067 ft 447 kts
2026-04-15 19:35 20.25924 -86.96251 33060 ft 447 kts
2026-04-15 19:36 20.32040 -86.95015 33064 ft 447 kts
2026-04-15 19:36 20.38110 -86.93775 33079 ft 446 kts
2026-04-15 19:37 20.44204 -86.92539 33088 ft 445 kts
2026-04-15 19:37 20.50288 -86.91302 33078 ft 444 kts
2026-04-15 19:38 20.56419 -86.90619 33076 ft 443 kts
2026-04-15 19:38 20.62574 -86.89987 33426 ft 442 kts
2026-04-15 19:39 20.65633 -86.89671 33733 ft 440 kts
2026-04-15 19:39 20.68672 -86.89357 34055 ft 438 kts
2026-04-15 19:39 20.71705 -86.89045 34321 ft 435 kts
2026-04-15 19:39 20.74716 -86.88735 34551 ft 434 kts
2026-04-15 19:40 20.77723 -86.88426 34753 ft 433 kts
2026-04-15 19:40 20.80729 -86.88117 34959 ft 433 kts
2026-04-15 19:40 20.86693 -86.87504 35082 ft 433 kts
2026-04-15 19:41 20.92682 -86.86884 35081 ft 432 kts
2026-04-15 19:41 20.98674 -86.86266 35082 ft 432 kts
2026-04-15 19:42 21.04640 -86.85393 35083 ft 434 kts
2026-04-15 19:42 21.10560 -86.84044 35082 ft 434 kts
2026-04-15 19:43 21.16442 -86.82699 35085 ft 435 kts
2026-04-15 19:43 21.22368 -86.81353 35083 ft 435 kts
2026-04-15 19:44 21.28294 -86.80007 35084 ft 435 kts
2026-04-15 19:44 21.34223 -86.78657 35086 ft 435 kts
2026-04-15 19:45 21.40121 -86.77306 35085 ft 435 kts
2026-04-15 19:45 21.46052 -86.75954 35087 ft 436 kts
2026-04-15 19:46 21.51981 -86.74600 35089 ft 436 kts
2026-04-15 19:46 21.57917 -86.73231 35090 ft 436 kts 10°
2026-04-15 19:47 21.63793 -86.71535 35093 ft 438 kts 13°
2026-04-15 19:47 21.69615 -86.69597 35095 ft 438 kts 14°
2026-04-15 19:48 21.75410 -86.67687 35096 ft 438 kts 13°
2026-04-15 19:48 21.81256 -86.65838 35098 ft 438 kts 13°
2026-04-15 19:49 21.87118 -86.64012 35096 ft 438 kts 13°
2026-04-15 19:49 21.92975 -86.62174 35095 ft 438 kts 13°
2026-04-15 19:50 21.98825 -86.60322 35096 ft 439 kts 13°
2026-04-15 19:50 22.04686 -86.58465 35099 ft 439 kts 13°
2026-04-15 19:51 22.10535 -86.56608 35105 ft 438 kts 13°
2026-04-15 19:51 22.16384 -86.54748 35105 ft 438 kts 13°
2026-04-15 19:52 22.22226 -86.52896 35106 ft 437 kts 13°
2026-04-15 19:52 22.28056 -86.51052 35103 ft 436 kts 13°
2026-04-15 19:53 22.33841 -86.49214 35100 ft 436 kts 13°
2026-04-15 19:53 22.39659 -86.47370 35096 ft 435 kts 13°
2026-04-15 19:54 22.44530 -86.45825 35092 ft 436 kts 13°
2026-04-15 19:54 22.50343 -86.43966 35085 ft 436 kts 13°
2026-04-15 19:55 22.56133 -86.42118 35087 ft 437 kts 13°
2026-04-15 19:55 22.61966 -86.40260 35088 ft 437 kts 13°
2026-04-15 19:56 22.67798 -86.38390 35089 ft 437 kts 13°
2026-04-15 19:56 22.73633 -86.36532 35089 ft 437 kts 13°
2026-04-15 19:57 22.79461 -86.34671 35088 ft 437 kts 13°
2026-04-15 19:57 22.85305 -86.32800 35089 ft 438 kts 13°
2026-04-15 19:58 22.91147 -86.30924 35089 ft 438 kts 13°
2026-04-15 19:58 22.96997 -86.29046 35096 ft 438 kts 13°
2026-04-15 19:59 23.02845 -86.27178 35090 ft 438 kts 13°
2026-04-15 19:59 23.08694 -86.25301 35096 ft 438 kts 13°
2026-04-15 20:00 23.14544 -86.23417 35093 ft 439 kts 13°
2026-04-15 20:00 23.20371 -86.21536 35096 ft 439 kts 13°
2026-04-15 20:01 23.26262 -86.19631 35100 ft 439 kts 13°
2026-04-15 20:01 23.32127 -86.17739 35115 ft 439 kts 13°
2026-04-15 20:02 23.37946 -86.15867 35116 ft 439 kts 13°
2026-04-15 20:02 23.43803 -86.13979 35113 ft 439 kts 13°
2026-04-15 20:03 23.49665 -86.12083 35112 ft 439 kts 13°
2026-04-15 20:03 23.55527 -86.10189 35112 ft 440 kts 13°
2026-04-15 20:04 23.61397 -86.08283 35115 ft 440 kts 13°
2026-04-15 20:04 23.67263 -86.06379 35116 ft 440 kts 13°
2026-04-15 20:05 23.73131 -86.04480 35119 ft 440 kts 13°
2026-04-15 20:05 23.79008 -86.02564 35116 ft 441 kts 13°
2026-04-15 20:06 23.84886 -86.00648 35114 ft 441 kts 13°
2026-04-15 20:06 23.90773 -85.98730 35113 ft 441 kts 13°
2026-04-15 20:07 23.96651 -85.96819 35116 ft 441 kts 13°
2026-04-15 20:07 24.02544 -85.94898 35121 ft 442 kts 13°
2026-04-15 20:08 24.08441 -85.92975 35123 ft 442 kts 13°
2026-04-15 20:08 24.14340 -85.91057 35126 ft 443 kts 13°
2026-04-15 20:09 24.20249 -85.89124 35124 ft 442 kts 13°
2026-04-15 20:09 24.26105 -85.87200 35130 ft 443 kts 13°
2026-04-15 20:10 24.32017 -85.85265 35126 ft 443 kts 13°
2026-04-15 20:10 24.37923 -85.83329 35131 ft 443 kts 13°
2026-04-15 20:11 24.43835 -85.81388 35122 ft 444 kts 13°
2026-04-15 20:11 24.49748 -85.79443 35135 ft 444 kts 13°
2026-04-15 20:12 24.55667 -85.77491 35129 ft 444 kts 13°
2026-04-15 20:12 24.61587 -85.75541 35132 ft 444 kts 13°
2026-04-15 20:13 24.67460 -85.73608 35124 ft 444 kts 13°
2026-04-15 20:13 24.73376 -85.71664 35131 ft 444 kts 13°
2026-04-15 20:14 24.79294 -85.69707 35130 ft 444 kts 13°
2026-04-15 20:14 24.85215 -85.67747 35134 ft 444 kts 13°
2026-04-15 20:15 24.91133 -85.65793 35129 ft 444 kts 13°
2026-04-15 20:15 24.97056 -85.63827 35144 ft 444 kts 13°
2026-04-15 20:16 25.02993 -85.61855 35142 ft 445 kts 13°
2026-04-15 20:16 25.08923 -85.59890 35136 ft 445 kts 13°
2026-04-15 20:17 25.14861 -85.57918 35141 ft 445 kts 13°
2026-04-15 20:17 25.20789 -85.55948 35133 ft 445 kts 13°
2026-04-15 20:18 25.26731 -85.53973 35150 ft 446 kts 13°
2026-04-15 20:18 25.32668 -85.51992 35143 ft 446 kts 13°
2026-04-15 20:19 25.38616 -85.50009 35143 ft 446 kts 13°
2026-04-15 20:19 25.44525 -85.48034 35141 ft 447 kts 13°
2026-04-15 20:20 25.50476 -85.46038 35147 ft 447 kts 13°
2026-04-15 20:20 25.56425 -85.44049 35145 ft 447 kts 13°
2026-04-15 20:21 25.62381 -85.42059 35156 ft 447 kts 13°
2026-04-15 20:21 25.68335 -85.40055 35162 ft 447 kts 13°
2026-04-15 20:22 25.74294 -85.38061 35155 ft 447 kts 13°
2026-04-15 20:22 25.80239 -85.36067 35160 ft 447 kts 13°
2026-04-15 20:23 25.85788 -85.34197 35162 ft 447 kts 13°
2026-04-15 20:23 25.91740 -85.32185 35152 ft 447 kts 13°
2026-04-15 20:24 26.00672 -85.29172 35150 ft 448 kts 13°
2026-04-15 20:25 26.06636 -85.27164 35148 ft 448 kts 13°
2026-04-15 20:25 26.12604 -85.25148 35151 ft 448 kts 13°
2026-04-15 20:26 26.18572 -85.23127 35161 ft 448 kts 13°
2026-04-15 20:26 26.24508 -85.21113 35152 ft 449 kts 13°
2026-04-15 20:27 26.30526 -85.19073 35151 ft 450 kts 13°
2026-04-15 20:27 26.36519 -85.17042 35153 ft 450 kts 13°
2026-04-15 20:28 26.42473 -85.15022 35161 ft 450 kts 13°
2026-04-15 20:28 26.48464 -85.12978 35166 ft 450 kts 13°
2026-04-15 20:29 26.54460 -85.10931 35160 ft 451 kts 13°
2026-04-15 20:29 26.60467 -85.08882 35157 ft 452 kts 13°
2026-04-15 20:30 26.66486 -85.06830 35157 ft 452 kts 13°
2026-04-15 20:30 26.72504 -85.04785 35160 ft 452 kts 13°
2026-04-15 20:31 26.78518 -85.02726 35174 ft 452 kts 13°
2026-04-15 20:31 26.84545 -85.00659 35167 ft 453 kts 13°
2026-04-15 20:32 26.90578 -84.98596 35165 ft 453 kts 13°
2026-04-15 20:32 26.96609 -84.96530 35167 ft 454 kts 13°
2026-04-15 20:33 27.02606 -84.94463 35168 ft 454 kts 13°
2026-04-15 20:33 27.08649 -84.92381 35175 ft 454 kts 13°
2026-04-15 20:34 27.14687 -84.90298 35168 ft 454 kts 13°
2026-04-15 20:34 27.20739 -84.88216 35167 ft 455 kts 13°
2026-04-15 20:35 27.26795 -84.86123 35172 ft 455 kts 13°
2026-04-15 20:35 27.32851 -84.84029 35173 ft 455 kts 13°
2026-04-15 20:36 27.38909 -84.81939 35183 ft 456 kts 13°
2026-04-15 20:36 27.44979 -84.79837 35175 ft 456 kts 13°
2026-04-15 20:37 27.50776 -84.76840 35169 ft 467 kts 31°
2026-04-15 20:37 27.55810 -84.72140 35168 ft 471 kts 36°